DW8482 Tortoreto Alto IT current weather conditions

sailwx.info

Wind from 055 at 1 knots gusting 3

Air temperature 13.3° C
Dewpoint 10.5° C

Last reported at 2017-Mar-24 14:51 UTC.
Time now 2017-Mar-24 15:57 UTC

Location: N 42°48' E 013°54'.
View on Google Maps.

See reports from other nearby stations

  
Tides and Currents Weather Stations Pressure Air Temp Water Temp Dewpoint Dewpoint Depression Visibility Wind Speed Wind Dir Waves Ship Positions
date/time (UTC)wind fromknots sea level pressurealtimeterstation pressurevisibilityair tempwater tempwave heightnotes
2017-Mar-24 14:51 055 1 gusting 3 13.3
2017-Mar-24 14:46 054 1 gusting 3 13.3
2017-Mar-24 14:41 054 1 gusting 3 13.3
2017-Mar-24 14:36 054 1 gusting 4 13.9
2017-Mar-24 14:31 065 1 gusting 4 13.9
2017-Mar-24 14:26 064 1 gusting 4 13.3
2017-Mar-24 14:21 066 1 gusting 3 13.3
2017-Mar-24 14:16 065 0 gusting 4 13.3
2017-Mar-24 14:11 065 0 gusting 4 13.3
2017-Mar-24 14:06 065 0 gusting 4 13.3
2017-Mar-24 14:01 065 1 gusting 4 13.3
2017-Mar-24 13:56 065 1 gusting 4 12.8
2017-Mar-24 13:52 065 1 gusting 4 12.8
2017-Mar-24 13:46 070 1 gusting 4 12.8
2017-Mar-24 13:42 069 2 gusting 4 12.8
2017-Mar-24 13:36 065 2 gusting 7 12.8
2017-Mar-24 13:31 063 2 gusting 7 13.3
2017-Mar-24 13:27 057 3 gusting 7 13.3
2017-Mar-24 13:22 069 3 gusting 7 13.3
2017-Mar-24 13:16 059 2 gusting 6 13.3
2017-Mar-24 13:11 042 2 gusting 6 13.3
2017-Mar-24 13:06 069 2 gusting 6 13.3
2017-Mar-24 13:01 064 2 gusting 6 13.3
2017-Mar-24 12:56 069 2 gusting 6 13.3
2017-Mar-24 12:51 046 2 gusting 6 13.3
2017-Mar-24 12:46 059 3 gusting 6 13.9
2017-Mar-24 12:41 069 2 gusting 6 13.9
2017-Mar-24 12:36 061 2 gusting 6 13.9
2017-Mar-24 12:31 032 3 gusting 6 13.9
2017-Mar-24 12:26 066 2 gusting 6 13.9
2017-Mar-24 12:21 063 2 gusting 4 13.9
2017-Mar-24 12:16 064 2 gusting 4 13.9
2017-Mar-24 12:11 061 2 gusting 4 13.9
2017-Mar-24 12:07 053 2 gusting 5 13.3
2017-Mar-24 12:01 053 2 gusting 5 13.3
2017-Mar-24 11:56 061 2 gusting 5 13.3
2017-Mar-24 11:51 059 2 gusting 6 13.3
2017-Mar-24 11:46 078 2 gusting 6 13.9
2017-Mar-24 11:41 066 2 gusting 5 13.9
2017-Mar-24 11:36 079 2 gusting 4 13.9
2017-Mar-24 11:31 074 2 gusting 4 13.9
2017-Mar-24 11:26 036 2 gusting 4 13.9
2017-Mar-24 11:21 060 2 gusting 6 13.9
2017-Mar-24 11:16 071 2 gusting 6 13.9
2017-Mar-24 11:11 071 2 gusting 6 13.9
2017-Mar-24 11:06 072 2 gusting 6 13.9
2017-Mar-24 11:01 071 3 gusting 4 13.9
2017-Mar-24 10:56 060 3 gusting 4 13.9
2017-Mar-24 10:51 069 2 gusting 6 14.4
2017-Mar-24 10:46 059 2 gusting 6 14.4
2017-Mar-24 10:41 073 2 gusting 6 14.4
2017-Mar-24 10:36 059 1 gusting 4 13.9
2017-Mar-24 10:30 059 1 gusting 4 13.3
2017-Mar-24 10:26 059 2 gusting 6 13.3
2017-Mar-24 10:20 065 2 gusting 6 13.3
2017-Mar-24 10:16 051 2 gusting 6 13.9
2017-Mar-24 10:10 061 1 gusting 6 13.9
2017-Mar-24 10:05 075 0 gusting 4 14.4
2017-Mar-24 10:00 055 1 gusting 3 14.4
2017-Mar-24 09:55 055 1 gusting 4 14.4
2017-Mar-24 09:50 045 1 gusting 4 13.3
2017-Mar-24 09:45 049 1 gusting 3 13.3
2017-Mar-24 09:40 050 2 gusting 4 12.8
2017-Mar-24 09:35 050 2 gusting 4 13.3
2017-Mar-24 09:30 042 2 gusting 4 12.8
2017-Mar-24 09:25 072 2 gusting 4 12.8
2017-Mar-24 09:20 056 2 gusting 4 12.8
2017-Mar-24 09:15 067 2 gusting 4 12.8
2017-Mar-24 09:10 069 1 gusting 4 12.8
2017-Mar-24 09:05 061 1 gusting 4 12.8
2017-Mar-24 09:00 068 1 gusting 4 12.2
2017-Mar-24 08:55 058 0 gusting 2 12.2
2017-Mar-24 08:50 059 1 gusting 4 12.2
2017-Mar-24 08:45 067 2 gusting 6 12.2
2017-Mar-24 08:40 066 1 gusting 6 12.2
2017-Mar-24 08:36 061 0 gusting 4 12.8
2017-Mar-24 08:30 028 0 gusting 3 13.3
2017-Mar-24 08:25 022 13.3
2017-Mar-24 08:20 022 0 gusting 2 12.8
2017-Mar-24 08:15 022 0 gusting 2 12.8
2017-Mar-24 08:10 022 0 gusting 2 12.2
2017-Mar-24 08:05 022 0 gusting 2 12.8
2017-Mar-24 08:01 022 12.8
2017-Mar-24 07:55 022 12.2
2017-Mar-24 07:50 022 12.2
2017-Mar-24 07:45 022 12.2
2017-Mar-24 07:40 022 11.7
2017-Mar-24 07:35 022 0 gusting 2 11.7
2017-Mar-24 07:30 022 11.7
2017-Mar-24 07:26 022 11.7
2017-Mar-24 07:21 022 0 gusting 3 11.7
2017-Mar-24 07:15 022 0 gusting 3 11.7
2017-Mar-24 07:10 005 11.7
2017-Mar-24 07:05 005 0 gusting 2 11.7
2017-Mar-24 07:00 005 0 gusting 2 12.2
2017-Mar-24 06:55 005 0 gusting 2 12.2
2017-Mar-24 06:50 005 0 gusting 2 12.8
2017-Mar-24 06:46 324 12.2
2017-Mar-24 06:40 324 12.2
2017-Mar-24 06:35 324 12.2
2017-Mar-24 06:30 319 11.7
2017-Mar-24 06:25 319 11.7
2017-Mar-24 06:20 319 11.1
2017-Mar-24 06:15 319 11.1
2017-Mar-24 06:10 319 11.1
2017-Mar-24 06:05 319 11.7
2017-Mar-24 06:00 319 11.7
2017-Mar-24 05:55 319 11.7
2017-Mar-24 05:50 320 11.7
2017-Mar-24 05:45 320 11.7
2017-Mar-24 05:40 320 11.7
2017-Mar-24 05:35 320 11.7
2017-Mar-24 05:30 320 11.7
2017-Mar-24 05:25 320 11.7
2017-Mar-24 05:20 320 11.7
2017-Mar-24 05:15 320 11.7
2017-Mar-24 05:10 320 11.7
2017-Mar-24 05:05 320 11.7
2017-Mar-24 05:00 320 11.7
2017-Mar-24 04:55 250 11.7
2017-Mar-24 04:50 250 12.2
2017-Mar-24 04:45 250 11.7
2017-Mar-24 04:40 250 11.7
2017-Mar-24 04:35 250 11.7
2017-Mar-24 04:30 250 11.7
2017-Mar-24 04:25 250 0 gusting 1 12.2
2017-Mar-24 04:20 250 12.2
2017-Mar-24 04:15 250 12.2
2017-Mar-24 04:10 250 12.2
2017-Mar-24 04:05 250 12.2
2017-Mar-24 04:00 250 12.2
2017-Mar-24 03:55 250 12.2
2017-Mar-24 03:50 250 12.2
2017-Mar-24 03:45 250 12.8
2017-Mar-24 03:40 250 12.8
2017-Mar-24 03:35 250 12.8
2017-Mar-24 03:30 250 12.8
2017-Mar-24 03:25 250 12.8
2017-Mar-24 03:20 250 12.8
2017-Mar-24 03:15 250 12.8
2017-Mar-24 03:10 250 12.2
2017-Mar-24 03:05 250 12.2
2017-Mar-24 03:00 250 12.2
2017-Mar-24 02:55 250 12.8
2017-Mar-24 02:50 250 12.8
2017-Mar-24 02:45 250 12.8
2017-Mar-24 02:40 250 12.8
2017-Mar-24 02:35 250 12.2
2017-Mar-24 02:30 250 12.2
2017-Mar-24 02:25 250 12.2
2017-Mar-24 02:20 250 12.2
2017-Mar-24 02:15 250 12.2
2017-Mar-24 02:10 250 12.2
2017-Mar-24 02:05 250 12.2
2017-Mar-24 02:00 250 12.2
2017-Mar-24 01:55 250 12.2
2017-Mar-24 01:50 250 12.2
2017-Mar-24 01:45 250 12.2
2017-Mar-24 01:40 250 12.2
2017-Mar-24 01:35 250 12.2
2017-Mar-24 01:30 250 12.2
2017-Mar-24 01:25 250 12.2
2017-Mar-24 01:20 250 12.2
2017-Mar-24 01:15 250 12.8
2017-Mar-24 01:10 250 12.8
2017-Mar-24 01:05 250 12.8
2017-Mar-24 01:00 250 12.8
2017-Mar-24 00:55 250 12.8
2017-Mar-24 00:50 250 12.8
2017-Mar-24 00:45 250 12.8
2017-Mar-24 00:40 250 12.8
2017-Mar-24 00:35 250 12.8
2017-Mar-24 00:25 250 12.8
2017-Mar-24 00:20 250 12.8
2017-Mar-24 00:15 250 12.8
2017-Mar-24 00:10 250 12.8
2017-Mar-24 00:05 250 12.8
2017-Mar-24 00:00 250 12.8
2017-Mar-23 23:55 250 12.8
2017-Mar-23 23:50 250 12.8
2017-Mar-23 23:45 250 12.8
2017-Mar-23 23:40 250 12.8
2017-Mar-23 23:35 250 13.3
2017-Mar-23 23:30 250 13.3
2017-Mar-23 23:25 250 13.3
2017-Mar-23 23:20 250 13.3
2017-Mar-23 23:10 250 13.3
2017-Mar-23 23:05 250 13.3
2017-Mar-23 23:00 250 12.8
2017-Mar-23 22:55 250 12.8
2017-Mar-23 22:50 250 12.8
2017-Mar-23 22:45 250 12.8
2017-Mar-23 22:40 250 12.8
2017-Mar-23 22:35 250 13.3
2017-Mar-23 22:25 250 13.3
2017-Mar-23 22:15 250 13.3
2017-Mar-23 22:10 250 13.3
2017-Mar-23 22:05 250 13.3
2017-Mar-23 21:55 250 0 gusting 2 12.8
2017-Mar-23 21:45 250 0 gusting 2 12.8
2017-Mar-23 21:40 250 13.3
2017-Mar-23 21:35 250 13.9
2017-Mar-23 21:30 250 13.3
2017-Mar-23 21:25 250 13.3
2017-Mar-23 21:20 250 13.3
2017-Mar-23 21:15 250 13.3
2017-Mar-23 21:10 250 0 gusting 2 13.3
2017-Mar-23 21:05 250 0 gusting 2 13.3
2017-Mar-23 21:00 250 0 gusting 2 13.3
2017-Mar-23 20:50 249 0 gusting 2 13.3
2017-Mar-23 20:45 248 0 gusting 2 13.3
2017-Mar-23 20:35 244 0 gusting 4 13.3
2017-Mar-23 20:30 216 0 gusting 2 13.3
2017-Mar-23 20:25 205 0 gusting 2 13.3
2017-Mar-23 20:20 205 13.3
2017-Mar-23 20:15 205 13.3
2017-Mar-23 20:05 205 0 gusting 2 13.3
2017-Mar-23 19:55 205 13.9
2017-Mar-23 19:50 205 0 gusting 1 13.9
2017-Mar-23 19:45 205 0 gusting 1 14.4
2017-Mar-23 19:40 205 14.4
2017-Mar-23 19:35 205 14.4
2017-Mar-23 19:30 205 14.4
2017-Mar-23 19:25 205 14.4
2017-Mar-23 19:20 205 14.4
2017-Mar-23 19:15 205 14.4
2017-Mar-23 19:10 205 0 gusting 1 14.4
2017-Mar-23 19:00 205 13.9
2017-Mar-23 18:55 205 14.4
2017-Mar-23 18:50 205 14.4
2017-Mar-23 18:45 205 14.4
2017-Mar-23 18:40 205 14.4
2017-Mar-23 18:35 205 0 gusting 1 14.4
2017-Mar-23 18:30 205 0 gusting 3 14.4
2017-Mar-23 18:24 205 0 gusting 3 14.4
2017-Mar-23 18:19 205 1 gusting 3 14.4
2017-Mar-23 18:15 204 1 gusting 3 14.4
2017-Mar-23 18:10 186 0 gusting 2 14.4
2017-Mar-23 18:04 177 0 gusting 2 14.4
2017-Mar-23 17:59 176 0 gusting 3 14.4
2017-Mar-23 17:55 176 0 gusting 3 14.4
2017-Mar-23 17:50 176 1 gusting 3 14.4
2017-Mar-23 17:45 171 0 gusting 3 14.4
2017-Mar-23 17:39 114 14.4
2017-Mar-23 17:35 114 14.4
2017-Mar-23 17:29 114 0 gusting 2 14.4
2017-Mar-23 17:24 114 0 gusting 2 14.4
2017-Mar-23 17:20 113 14.4
2017-Mar-23 17:14 113 14.4
2017-Mar-23 17:08 113 14.4
2017-Mar-23 16:45 113 15.0
2017-Mar-23 16:39 113 15.0
2017-Mar-23 16:34 113 0 gusting 1 15.6
2017-Mar-23 16:30 113 0 gusting 3 15.6
2017-Mar-23 16:25 082 15.6
2017-Mar-23 16:19 077 15.6
2017-Mar-23 16:15 075 15.6
2017-Mar-23 16:09 075 15.6
2017-Mar-23 16:05 075 15.6
2017-Mar-23 15:59 075 0 gusting 4 15.6
2017-Mar-23 15:55 078 0 gusting 4 15.6
2017-Mar-23 15:49 096 0 gusting 4 15.6
2017-Mar-23 15:45 060 0 gusting 3 15.6
2017-Mar-23 15:39 050 0 gusting 3 16.1
2017-Mar-23 15:34 198 0 gusting 4 16.1
2017-Mar-23 15:29 198 1 gusting 4 16.1
2017-Mar-23 15:25 189 1 gusting 4 16.1
2017-Mar-23 15:20 180 1 gusting 4 15.6
2017-Mar-23 15:14 165 1 gusting 3 15.6
2017-Mar-23 15:09 165 0 gusting 3 15.6
2017-Mar-23 15:05 153 0 gusting 3 15.6
2017-Mar-23 15:00 093 15.6
2017-Mar-23 14:54 093 0 gusting 3 15.6
2017-Mar-23 14:50 150 0 gusting 3 15.6
2017-Mar-23 14:45 090 0 gusting 3 15.6
2017-Mar-23 14:39 068 0 gusting 3 15.6
2017-Mar-23 14:34 187 0 gusting 4 16.1
2017-Mar-23 14:29 192 0 gusting 6 16.1
2017-Mar-23 14:24 101 1 gusting 6 16.7
2017-Mar-23 14:19 205 1 gusting 5 16.1
2017-Mar-23 14:14 200 0 gusting 5 15.6
2017-Mar-23 14:09 135 1 gusting 5 15.6
2017-Mar-23 14:05 095 1 gusting 5 15.6
2017-Mar-23 13:59 066 2 gusting 5 15.6
2017-Mar-23 13:55 075 2 gusting 6 16.1
2017-Mar-23 13:49 081 2 gusting 6 15.6
2017-Mar-23 13:45 081 2 gusting 6 16.1
2017-Mar-23 13:39 074 2 gusting 6 16.1
2017-Mar-23 13:34 079 2 gusting 5 16.1
2017-Mar-23 13:29 086 2 gusting 7 16.7
2017-Mar-23 13:24 076 3 gusting 7 16.1
2017-Mar-23 13:19 073 3 gusting 6 16.7
2017-Mar-23 13:14 074 3 gusting 7 16.7
2017-Mar-23 13:10 084 3 gusting 7 16.1
2017-Mar-23 13:04 068 2 gusting 7 16.7
2017-Mar-23 12:59 060 3 gusting 7 16.1
2017-Mar-23 12:54 057 3 gusting 7 16.1
2017-Mar-23 12:49 065 3 gusting 8 16.1
2017-Mar-23 12:44 089 3 gusting 8 16.1
2017-Mar-23 12:39 075 3 gusting 8 16.1
2017-Mar-23 12:34 078 3 gusting 6 16.1
2017-Mar-23 12:29 080 2 gusting 6 16.1
2017-Mar-23 12:24 078 2 gusting 6 16.1
2017-Mar-23 12:19 105 2 gusting 6 16.7
2017-Mar-23 12:14 088 1 gusting 6 16.1
2017-Mar-23 12:09 096 1 gusting 6 16.1
2017-Mar-23 12:04 168 1 gusting 4 16.1
2017-Mar-23 12:00 113 1 gusting 4 15.6
2017-Mar-23 11:54 188 1 gusting 4 16.1
2017-Mar-23 11:49 184 1 gusting 6 15.6
2017-Mar-23 11:44 144 2 gusting 6 16.1
2017-Mar-23 11:39 086 1 gusting 6 15.6
2017-Mar-23 11:34 074 1 gusting 6 16.1
2017-Mar-23 11:29 147 1 gusting 5 16.1
2017-Mar-23 11:24 095 2 gusting 6 16.7
2017-Mar-23 11:19 063 2 gusting 6 16.1
2017-Mar-23 11:14 088 2 gusting 6 16.1
2017-Mar-23 11:09 090 2 gusting 6 16.1
2017-Mar-23 11:04 129 2 gusting 6 16.1
2017-Mar-23 10:59 080 1 gusting 6 16.1
2017-Mar-23 10:54 084 1 gusting 6 16.1
2017-Mar-23 10:49 107 2 gusting 6 16.1
2017-Mar-23 10:44 130 2 gusting 6 16.7
2017-Mar-23 10:39 051 1 gusting 4 16.1
2017-Mar-23 10:34 086 1 gusting 4 16.1
2017-Mar-23 10:29 089 0 gusting 4 16.1
2017-Mar-23 10:24 119 1 gusting 6 16.7
2017-Mar-23 10:19 096 1 gusting 6 16.1
2017-Mar-23 10:14 074 1 gusting 6 16.1
2017-Mar-23 10:09 206 1 gusting 6 15.6
2017-Mar-23 10:04 179 0 gusting 4 16.1
2017-Mar-23 09:59 192 1 gusting 5 16.1
2017-Mar-23 09:54 193 1 gusting 5 16.1
2017-Mar-23 09:49 196 1 gusting 5 15.6
2017-Mar-23 09:44 192 1 gusting 5 15.6
2017-Mar-23 09:39 194 1 gusting 5 15.6
2017-Mar-23 09:34 185 0 gusting 5 15.6
2017-Mar-23 09:29 181 0 gusting 5 16.1
2017-Mar-23 09:24 190 0 gusting 5 16.1
2017-Mar-23 09:19 190 0 gusting 4 15.6
2017-Mar-23 09:14 190 0 gusting 4 15.6
2017-Mar-23 09:09 186 0 gusting 4 15.6
2017-Mar-23 09:04 168 0 gusting 3 15.6
2017-Mar-23 08:59 180 0 gusting 3 15.0
2017-Mar-23 08:54 180 0 gusting 4 15.0
2017-Mar-23 08:49 179 0 gusting 4 15.0
2017-Mar-23 08:44 176 0 gusting 4 14.4
2017-Mar-23 08:39 176 0 gusting 4 14.4
2017-Mar-23 08:34 202 0 gusting 3 14.4
2017-Mar-23 08:29 202 1 gusting 4 14.4
2017-Mar-23 08:24 207 0 gusting 4 14.4
2017-Mar-23 08:19 217 0 gusting 3 13.9
2017-Mar-23 08:14 217 0 gusting 3 13.9
2017-Mar-23 08:09 213 0 gusting 3 13.3
2017-Mar-23 08:04 221 0 gusting 2 13.3
2017-Mar-23 07:59 211 0 gusting 2 12.8
2017-Mar-23 07:54 219 12.8
2017-Mar-23 07:49 219 12.8
2017-Mar-23 07:44 217 0 gusting 2 12.8
2017-Mar-23 07:39 217 0 gusting 2 12.2
2017-Mar-23 07:34 217 12.2
2017-Mar-23 07:29 217 11.7
2017-Mar-23 07:24 217 11.1
2017-Mar-23 07:19 217 11.1
2017-Mar-23 07:14 217 11.1
2017-Mar-23 07:09 217 11.7
2017-Mar-23 07:04 217 11.1
2017-Mar-23 06:59 217 11.1
2017-Mar-23 06:54 217 11.1
2017-Mar-23 06:49 217 10.6
2017-Mar-23 06:44 217 10.6
2017-Mar-23 06:39 217 0 gusting 2 10.0
2017-Mar-23 06:34 217 0 gusting 2 10.6
2017-Mar-23 06:29 221 0 gusting 2 10.0
2017-Mar-23 06:24 221 0 gusting 2 10.0
2017-Mar-23 06:19 215 0 gusting 2 10.6
2017-Mar-23 06:14 232 0 gusting 3 10.6
2017-Mar-23 06:09 237 0 gusting 3 10.0
2017-Mar-23 06:04 115 10.0
2017-Mar-23 05:59 113 10.0
2017-Mar-23 05:54 113 10.0
2017-Mar-23 05:49 113 10.0
2017-Mar-23 05:44 113 10.0
2017-Mar-23 05:39 113 10.0
2017-Mar-23 05:34 113 10.0
2017-Mar-23 05:29 113 10.0
2017-Mar-23 05:24 113 10.0
2017-Mar-23 05:19 113 10.0
2017-Mar-23 05:14 113 10.0
2017-Mar-23 05:09 113 10.0
2017-Mar-23 05:04 113 10.0
2017-Mar-23 04:59 113 9.4
2017-Mar-23 04:54 113 9.4
2017-Mar-23 04:49 113 9.4
2017-Mar-23 04:44 113 9.4
2017-Mar-23 04:39 113 9.4
2017-Mar-23 04:34 113 0 gusting 1 10.0
2017-Mar-23 04:29 113 10.6
2017-Mar-23 04:24 113 10.6
2017-Mar-23 04:19 064 10.6
2017-Mar-23 04:14 064 10.0
2017-Mar-23 04:09 064 9.4
2017-Mar-23 04:04 064 9.4
2017-Mar-23 03:59 064 10.0
2017-Mar-23 03:54 064 10.0
2017-Mar-23 03:49 064 10.6
2017-Mar-23 03:44 059 10.6
2017-Mar-23 03:39 059 10.6
2017-Mar-23 03:34 059 11.1
2017-Mar-23 03:29 059 11.1
2017-Mar-23 03:24 059 11.1
2017-Mar-23 03:19 059 11.1
2017-Mar-23 03:14 059 0 gusting 3 11.1
2017-Mar-23 03:09 059 1 gusting 3 11.1
2017-Mar-23 03:04 059 1 gusting 3 11.1
2017-Mar-23 02:59 060 1 gusting 3 11.1
2017-Mar-23 02:54 056 0 gusting 3 11.1
2017-Mar-23 02:49 056 11.1
2017-Mar-23 02:44 056 11.1
2017-Mar-23 02:38 056 11.7
2017-Mar-23 02:34 056 11.7
2017-Mar-23 02:29 056 11.1
2017-Mar-23 02:19 056 11.1
2017-Mar-23 02:13 056 0 gusting 2 11.7
2017-Mar-23 02:09 056 1 gusting 3 11.7
2017-Mar-23 02:04 056 1 gusting 3 11.7
2017-Mar-23 01:59 061 1 gusting 2 11.7
2017-Mar-23 01:54 061 0 gusting 2 11.7
2017-Mar-23 01:49 061 11.7
2017-Mar-23 01:44 061 0 gusting 2 11.7
2017-Mar-23 01:34 061 0 gusting 2 11.7
2017-Mar-23 01:29 061 11.7
2017-Mar-23 01:24 061 11.7
2017-Mar-23 01:19 061 11.7
2017-Mar-23 01:14 061 12.2
2017-Mar-23 01:09 061 12.2
2017-Mar-23 01:04 061 12.2
2017-Mar-23 00:59 061 12.2
2017-Mar-23 00:53 061 0 gusting 1 11.7
2017-Mar-23 00:48 061 0 gusting 1 12.2
2017-Mar-23 00:43 061 12.2
2017-Mar-23 00:38 061 12.2
2017-Mar-23 00:33 061 12.2
2017-Mar-23 00:29 061 12.8
2017-Mar-23 00:24 061 12.8
2017-Mar-23 00:18 061 0 gusting 1 12.8
2017-Mar-23 00:14 061 12.2
2017-Mar-23 00:08 061 11.7
2017-Mar-23 00:03 061 11.7
2017-Mar-22 23:58 061 11.7
2017-Mar-22 23:54 061 11.7
2017-Mar-22 23:49 061 12.2
2017-Mar-22 23:44 061 12.2
2017-Mar-22 23:38 061 12.2
2017-Mar-22 23:33 061 12.2
2017-Mar-22 23:28 061 12.2
2017-Mar-22 23:23 061 12.2
2017-Mar-22 23:18 061 12.2
2017-Mar-22 23:13 061 12.2
2017-Mar-22 23:09 061 12.8
2017-Mar-22 23:04 061 12.8
2017-Mar-22 22:59 061 0 gusting 3 12.2
2017-Mar-22 22:54 061 1 gusting 3 12.2
2017-Mar-22 22:38 12.2
2017-Mar-22 22:34 12.2
2017-Mar-22 22:28 12.2
2017-Mar-22 22:24 12.2
2017-Mar-22 22:18 12.2
2017-Mar-22 22:14 12.2
2017-Mar-22 22:08 11.7
2017-Mar-22 22:03 11.1
2017-Mar-22 21:58 321 0 gusting 3 11.7
2017-Mar-22 21:54 321 0 gusting 3 11.7
2017-Mar-22 21:48 146 11.7
2017-Mar-22 21:44 144 11.1
2017-Mar-22 21:38 145 11.1
2017-Mar-22 21:33 145 11.1
2017-Mar-22 21:29 145 11.1
2017-Mar-22 21:23 145 11.7
2017-Mar-22 21:19 145 11.7
2017-Mar-22 21:13 145 11.7
2017-Mar-22 21:08 145 11.7
2017-Mar-22 21:03 145 11.7
2017-Mar-22 20:58 145 11.7
2017-Mar-22 20:53 145 11.7
2017-Mar-22 20:48 145 12.2
2017-Mar-22 20:43 145 0 gusting 1 12.2
2017-Mar-22 20:38 145 12.2
2017-Mar-22 20:34 145 11.7
2017-Mar-22 20:28 145 11.7
2017-Mar-22 20:24 145 11.1
2017-Mar-22 20:18 145 11.1
2017-Mar-22 20:13 145 11.1
2017-Mar-22 20:09 145 11.7
2017-Mar-22 20:05 145 11.7
2017-Mar-22 19:59 145 0 gusting 2 11.1
2017-Mar-22 19:54 145 11.1
2017-Mar-22 19:49 145 11.1
2017-Mar-22 19:44 145 11.7
2017-Mar-22 19:38 145 11.7
2017-Mar-22 19:34 145 11.7
2017-Mar-22 19:28 145 11.7
2017-Mar-22 19:23 145 11.1
2017-Mar-22 19:18 145 11.1
2017-Mar-22 19:13 145 11.1
2017-Mar-22 19:08 145 11.1
2017-Mar-22 19:03 145 11.7
2017-Mar-22 18:58 145 11.7
2017-Mar-22 18:53 145 0 gusting 1 11.7
2017-Mar-22 18:48 145 0 gusting 2 11.7
2017-Mar-22 18:43 145 0 gusting 2 11.7
2017-Mar-22 18:38 145 11.7
2017-Mar-22 18:33 145 11.7
2017-Mar-22 18:28 145 11.7
2017-Mar-22 18:23 145 11.7
2017-Mar-22 18:18 145 11.7
2017-Mar-22 18:13 145 11.7
2017-Mar-22 18:08 145 11.7
2017-Mar-22 18:03 145 11.7
2017-Mar-22 17:58 145 11.7
2017-Mar-22 17:53 145 11.7
2017-Mar-22 17:48 145 11.7
2017-Mar-22 17:43 145 11.7
2017-Mar-22 17:38 145 11.7
2017-Mar-22 17:33 145 11.7
2017-Mar-22 17:28 145 11.7
2017-Mar-22 17:23 145 11.7
2017-Mar-22 17:18 145 11.7
2017-Mar-22 17:13 145 11.7
2017-Mar-22 17:08 145 11.7
2017-Mar-22 17:03 145 11.7
2017-Mar-22 16:58 145 12.2
2017-Mar-22 16:53 145 0 gusting 2 12.2
2017-Mar-22 16:48 145 0 gusting 2 12.2
2017-Mar-22 16:43 140 12.2
2017-Mar-22 16:38 140 12.2
2017-Mar-22 16:33 140 12.2
2017-Mar-22 16:28 140 12.2
2017-Mar-22 16:23 140 12.2
2017-Mar-22 16:18 140 12.2
2017-Mar-22 16:13 140 12.2
2017-Mar-22 16:08 140 12.2
2017-Mar-22 15:58 140 12.2
2017-Mar-22 15:53 140 12.2
2017-Mar-22 15:48 139 12.2
2017-Mar-22 15:43 139 12.2
2017-Mar-22 15:38 139 12.2
2017-Mar-22 15:33 134 12.2
2017-Mar-22 15:28 057 12.2
2017-Mar-22 15:23 057 12.2
2017-Mar-22 15:18 057 12.2
2017-Mar-22 15:13 057 12.8
2017-Mar-22 15:03 057 12.8